Radiation Dose at Monitoring Post of Fukushima Daini Nuclear Power Station
Date,Time,MP-1(microSv/h),MP-2(microSv/h),MP-3(microSv/h),MP-4(microSv/h),MP-5(microSv/h),MP-6(microSv/h),MP-7(microSv/h),Wind Direction,Wind Velocity(m/s),Rain
2015/02/08,00:00,0.530,0.323,0.612,0.557,0.516,0.254,0.231,south,6.0,No
2015/02/08,00:10,0.531,0.324,0.612,0.557,0.517,0.255,0.230,south,4.3,No
2015/02/08,00:20,0.529,0.325,0.613,0.557,0.518,0.255,0.231,south,3.6,No
2015/02/08,00:30,0.529,0.324,0.612,0.559,0.516,0.257,0.229,south-southwest,5.1,No
2015/02/08,00:40,0.532,0.322,0.612,0.558,0.518,0.256,0.230,south-southwest,4.8,No
2015/02/08,00:50,0.529,0.324,0.613,0.559,0.517,0.255,0.230,south-southwest,6.2,No
2015/02/08,01:00,0.530,0.324,0.613,0.557,0.519,0.256,0.230,south,6.0,Yes
2015/02/08,01:10,0.531,0.324,0.614,0.558,0.517,0.256,0.232,south-southwest,5.9,Yes
2015/02/08,01:20,0.531,0.323,0.613,0.559,0.517,0.256,0.231,south-southwest,5.8,Yes
2015/02/08,01:30,0.529,0.325,0.615,0.559,0.518,0.256,0.229,south-southwest,5.2,Yes
2015/02/08,01:40,0.533,0.326,0.613,0.558,0.519,0.257,0.232,south-southwest,4.8,Yes
2015/02/08,01:50,0.530,0.325,0.614,0.557,0.518,0.257,0.229,south-southwest,4.4,Yes
2015/02/08,02:00,0.530,0.326,0.613,0.558,0.515,0.256,0.232,south-southwest,3.4,Yes
2015/02/08,02:10,0.530,0.325,0.614,0.558,0.519,0.256,0.230,south-southwest,3.3,Yes
2015/02/08,02:20,0.529,0.325,0.612,0.556,0.518,0.256,0.231,southwest,3.0,Yes
2015/02/08,02:30,0.530,0.324,0.612,0.558,0.516,0.257,0.230,southwest,2.9,Yes
2015/02/08,02:40,0.529,0.323,0.612,0.559,0.517,0.256,0.231,southwest,2.8,Yes
2015/02/08,02:50,0.531,0.325,0.613,0.558,0.517,0.256,0.231,west-southwest,2.2,Yes
2015/02/08,03:00,0.529,0.325,0.612,0.558,0.518,0.256,0.230,west-southwest,2.5,Yes
2015/02/08,03:10,0.528,0.324,0.613,0.558,0.516,0.256,0.230,southwest,2.1,Yes
2015/02/08,03:20,0.531,0.325,0.614,0.557,0.518,0.256,0.232,southwest,2.0,Yes
2015/02/08,03:30,0.528,0.325,0.612,0.558,0.518,0.256,0.229,west-southwest,2.4,Yes
2015/02/08,03:40,0.530,0.324,0.611,0.556,0.518,0.257,0.231,southwest,2.4,Yes
2015/02/08,03:50,0.529,0.324,0.613,0.557,0.517,0.255,0.231,southwest,2.2,Yes
2015/02/08,04:00,0.530,0.325,0.613,0.555,0.516,0.256,0.229,southwest,1.4,Yes
2015/02/08,04:10,0.527,0.325,0.611,0.556,0.517,0.256,0.229,southwest,1.3,Yes
2015/02/08,04:20,0.529,0.325,0.613,0.556,0.516,0.256,0.231,west-southwest,1.4,Yes
2015/02/08,04:30,0.532,0.325,0.611,0.556,0.518,0.256,0.230,west-southwest,1.7,Yes
2015/02/08,04:40,0.528,0.324,0.612,0.555,0.518,0.256,0.231,west,2.2,Yes
2015/02/08,04:50,0.526,0.325,0.612,0.556,0.517,0.256,0.230,west,2.8,No
2015/02/08,05:00,0.530,0.324,0.611,0.555,0.517,0.257,0.230,west,3.3,Yes
2015/02/08,05:10,0.528,0.324,0.611,0.556,0.517,0.255,0.228,west,2.7,No
2015/02/08,05:20,0.527,0.322,0.610,0.555,0.517,0.255,0.230,west,1.9,No
2015/02/08,05:30,0.527,0.324,0.611,0.556,0.516,0.255,0.229,west,2.8,No
2015/02/08,05:40,0.528,0.323,0.610,0.556,0.515,0.255,0.229,west,1.7,No
2015/02/08,05:50,0.526,0.323,0.609,0.555,0.516,0.255,0.229,west-southwest,1.3,No
2015/02/08,06:00,0.526,0.321,0.610,0.555,0.518,0.254,0.227,west-southwest,1.2,No
2015/02/08,06:10,0.529,0.322,0.610,0.553,0.515,0.254,0.227,west-southwest,1.7,No
2015/02/08,06:20,0.527,0.322,0.609,0.554,0.516,0.254,0.228,west-southwest,2.2,No
2015/02/08,06:30,0.525,0.322,0.609,0.554,0.518,0.254,0.228,southwest,1.1,No
2015/02/08,06:40,0.527,0.321,0.609,0.555,0.516,0.254,0.228,west,0.9,No
2015/02/08,06:50,0.527,0.323,0.609,0.554,0.516,0.254,0.227,west,1.3,No
2015/02/08,07:00,0.525,0.322,0.610,0.554,0.516,0.254,0.228,west-southwest,1.1,No
2015/02/08,07:10,0.528,0.321,0.609,0.554,0.518,0.253,0.228,southwest,0.9,No
2015/02/08,07:20,0.529,0.322,0.610,0.554,0.519,0.253,0.228,south-southwest,0.8,No
2015/02/08,07:30,0.526,0.323,0.610,0.555,0.517,0.254,0.229,south-southwest,1.2,No
2015/02/08,07:40,0.527,0.322,0.609,0.555,0.518,0.253,0.227,south-southeast,0.8,No
2015/02/08,07:50,0.529,0.322,0.609,0.555,0.517,0.255,0.228,south-southeast,0.7,No
2015/02/08,08:00,0.527,0.322,0.609,0.554,0.517,0.255,0.228,south-southwest,1.0,No
2015/02/08,08:10,0.526,0.323,0.609,0.556,0.517,0.254,0.228,-,CALM,No
2015/02/08,08:20,0.530,0.322,0.611,0.554,0.517,0.254,0.228,southwest,1.3,No
2015/02/08,08:30,0.526,0.323,0.610,0.555,0.517,0.254,0.228,south-southwest,1.9,No
2015/02/08,08:40,0.527,0.323,0.610,0.556,0.517,0.255,0.228,south,1.3,No
2015/02/08,08:50,0.530,0.323,0.610,0.555,0.520,0.255,0.228,south,1.4,No
2015/02/08,09:00,0.527,0.322,0.609,0.556,0.518,0.254,0.228,south,1.4,No
2015/02/08,09:10,0.527,0.324,0.611,0.555,0.518,0.254,0.226,south,2.2,No
2015/02/08,09:20,0.530,0.322,0.611,0.554,0.519,0.255,0.227,south,2.5,No
2015/02/08,09:30,0.526,0.322,0.609,0.555,0.519,0.255,0.227,south,2.3,No
2015/02/08,09:40,0.528,0.322,0.609,0.556,0.517,0.254,0.229,south-southeast,2.8,No
2015/02/08,09:50,0.527,0.322,0.610,0.556,0.520,0.255,0.228,southeast,2.2,No
2015/02/08,10:00,0.526,0.323,0.611,0.553,0.517,0.254,0.228,south-southeast,1.7,No
2015/02/08,10:10,0.529,0.323,0.611,0.556,0.519,0.254,0.226,south-southeast,1.3,No
2015/02/08,10:20,0.528,0.323,0.610,0.556,0.521,0.253,0.227,south-southeast,1.4,No
2015/02/08,10:30,0.526,0.322,0.610,0.556,0.518,0.254,0.227,south-southeast,2.8,No
2015/02/08,10:40,0.531,0.323,0.612,0.554,0.517,0.254,0.227,south-southeast,2.8,No
2015/02/08,10:50,0.528,0.324,0.611,0.556,0.521,0.254,0.227,southeast,3.1,No
2015/02/08,11:00,0.530,0.322,0.612,0.556,0.519,0.254,0.229,south-southeast,3.3,No
2015/02/08,11:10,0.529,0.324,0.611,0.557,0.519,0.255,0.228,south-southeast,3.9,No
2015/02/08,11:20,0.527,0.323,0.612,0.554,0.521,0.255,0.229,south-southeast,3.6,No
2015/02/08,11:30,0.528,0.324,0.610,0.555,0.520,0.254,0.229,south-southeast,4.0,No
2015/02/08,11:40,0.528,0.325,0.611,0.555,0.522,0.254,0.229,south-southeast,3.1,No
2015/02/08,11:50,0.528,0.324,0.614,0.557,0.521,0.255,0.228,south-southeast,2.8,No
2015/02/08,12:00,0.530,0.323,0.612,0.556,0.520,0.255,0.229,south,2.3,Yes
2015/02/08,12:10,0.527,0.324,0.613,0.557,0.522,0.255,0.229,south,2.3,Yes
2015/02/08,12:20,0.530,0.324,0.614,0.559,0.520,0.256,0.230,south-southeast,1.7,Yes
2015/02/08,12:30,0.529,0.324,0.611,0.558,0.523,0.255,0.230,south,0.7,Yes
2015/02/08,12:40,0.529,0.325,0.613,0.557,0.525,0.256,0.231,south-southeast,0.9,Yes
2015/02/08,12:50,0.531,0.327,0.612,0.558,0.524,0.258,0.232,north,1.1,Yes
2015/02/08,13:00,0.530,0.327,0.612,0.558,0.523,0.258,0.232,west-northwest,5.7,Yes
2015/02/08,13:10,0.528,0.327,0.612,0.556,0.525,0.258,0.231,north-northeast,5.2,Yes
2015/02/08,13:20,0.528,0.327,0.609,0.555,0.521,0.258,0.231,northeast,4.7,Yes
2015/02/08,13:30,0.526,0.325,0.607,0.553,0.521,0.257,0.232,east-southeast,7.7,Yes
2015/02/08,13:40,0.523,0.326,0.606,0.552,0.522,0.258,0.232,west-northwest,6.1,Yes
2015/02/08,13:50,0.526,0.326,0.606,0.552,0.524,0.261,0.232,west,2.0,Yes
2015/02/08,14:00,0.527,0.326,0.604,0.551,0.522,0.261,0.234,west-northwest,2.6,Yes
2015/02/08,14:10,0.525,0.328,0.607,0.552,0.523,0.262,0.235,west-northwest,3.1,Yes
2015/02/08,14:20,0.527,0.327,0.605,0.553,0.525,0.261,0.235,west,2.2,Yes
2015/02/08,14:30,0.525,0.327,0.602,0.549,0.523,0.262,0.233,northwest,1.9,Yes
2015/02/08,14:40,0.524,0.327,0.601,0.547,0.521,0.261,0.233,west-northwest,4.7,Yes
2015/02/08,14:50,0.523,0.326,0.597,0.544,0.522,0.260,0.231,west,0.9,Yes
2015/02/08,15:00,0.521,0.325,0.595,0.543,0.520,0.260,0.231,north-northeast,4.0,Yes
2015/02/08,15:10,0.519,0.326,0.595,0.539,0.519,0.259,0.230,north,6.2,Yes
2015/02/08,15:20,0.519,0.326,0.594,0.541,0.519,0.259,0.230,west-southwest,6.3,Yes
2015/02/08,15:30,0.519,0.325,0.595,0.540,0.521,0.260,0.231,north,2.8,Yes
2015/02/08,15:40,0.518,0.327,0.596,0.541,0.522,0.258,0.231,-,CALM,Yes
2015/02/08,15:50,0.520,0.326,0.599,0.545,0.523,0.260,0.232,west,6.1,Yes
2015/02/08,16:00,0.522,0.325,0.597,0.545,0.523,0.261,0.233,west-northwest,3.2,Yes
2015/02/08,16:10,0.522,0.327,0.599,0.546,0.522,0.260,0.233,west,2.7,Yes
2015/02/08,16:20,0.519,0.325,0.597,0.544,0.521,0.258,0.231,south,3.1,Yes
2015/02/08,16:30,0.520,0.325,0.597,0.543,0.522,0.259,0.230,southeast,2.5,Yes
2015/02/08,16:40,0.519,0.326,0.597,0.542,0.524,0.257,0.230,southeast,2.8,Yes
2015/02/08,16:50,0.517,0.325,0.596,0.541,0.518,0.256,0.228,south-southeast,3.9,Yes
2015/02/08,17:00,0.519,0.325,0.595,0.540,0.519,0.257,0.227,south-southeast,4.3,Yes
2015/02/08,17:10,0.516,0.323,0.596,0.540,0.521,0.254,0.227,south-southeast,5.6,No
2015/02/08,17:20,0.517,0.321,0.596,0.543,0.520,0.253,0.225,south,4.9,No
2015/02/08,17:30,0.516,0.323,0.596,0.541,0.518,0.251,0.223,south,4.3,No
2015/02/08,17:40,0.518,0.320,0.596,0.540,0.518,0.250,0.222,southwest,3.5,No
2015/02/08,17:50,0.517,0.318,0.596,0.539,0.518,0.250,0.222,southwest,4.5,No
2015/02/08,18:00,0.515,0.319,0.597,0.542,0.517,0.249,0.223,west-southwest,4.5,No
2015/02/08,18:10,0.517,0.318,0.595,0.541,0.516,0.248,0.223,southwest,3.3,No
2015/02/08,18:20,0.515,0.318,0.595,0.541,0.516,0.249,0.220,west,2.2,No
2015/02/08,18:30,0.514,0.318,0.594,0.541,0.520,0.248,0.220,west,2.1,No
2015/02/08,18:40,0.516,0.320,0.595,0.540,0.516,0.248,0.220,west-northwest,1.7,No
2015/02/08,18:50,0.517,0.320,0.595,0.541,0.517,0.247,0.221,-,CALM,No
2015/02/08,19:00,0.517,0.318,0.595,0.541,0.515,0.248,0.220,south-southeast,1.4,No
2015/02/08,19:10,0.516,0.316,0.596,0.539,0.518,0.250,0.219,southeast,1.3,No
2015/02/08,19:20,0.516,0.319,0.594,0.542,0.516,0.249,0.220,south-southwest,1.5,No
2015/02/08,19:30,0.516,0.319,0.596,0.541,0.515,0.249,0.220,southwest,2.4,No
2015/02/08,19:40,0.516,0.319,0.596,0.543,0.516,0.247,0.219,southwest,2.2,No
2015/02/08,19:50,0.515,0.318,0.596,0.541,0.517,0.249,0.220,south,0.9,No
2015/02/08,20:00,0.516,0.318,0.596,0.542,0.514,0.247,0.219,south-southeast,1.9,No
2015/02/08,20:10,0.517,0.320,0.596,0.540,0.514,0.248,0.221,south-southeast,1.8,No
2015/02/08,20:20,0.517,0.317,0.596,0.542,0.515,0.250,0.219,south,1.7,No
2015/02/08,20:30,0.517,0.317,0.598,0.542,0.516,0.249,0.220,south,1.9,No
2015/02/08,20:40,0.516,0.319,0.597,0.543,0.516,0.248,0.220,south-southeast,2.7,No
2015/02/08,20:50,0.517,0.319,0.596,0.542,0.516,0.247,0.221,south-southeast,3.8,No
2015/02/08,21:00,0.516,0.318,0.597,0.542,0.517,0.249,0.220,south-southeast,3.5,No
2015/02/08,21:10,0.519,0.317,0.597,0.541,0.517,0.248,0.221,south,4.5,No
2015/02/08,21:20,0.518,0.318,0.598,0.543,0.517,0.248,0.220,south,4.5,No
2015/02/08,21:30,0.518,0.319,0.598,0.541,0.517,0.247,0.220,south,5.1,No
2015/02/08,21:40,0.517,0.319,0.598,0.544,0.518,0.248,0.220,south-southwest,4.6,No
2015/02/08,21:50,0.519,0.317,0.598,0.542,0.518,0.248,0.221,south-southwest,4.5,No
2015/02/08,22:00,0.519,0.320,0.599,0.544,0.516,0.249,0.220,south,4.5,No
2015/02/08,22:10,0.518,0.320,0.597,0.541,0.519,0.249,0.220,south,3.1,No
2015/02/08,22:20,0.519,0.319,0.598,0.544,0.518,0.248,0.221,south-southwest,3.5,No
2015/02/08,22:30,0.518,0.318,0.596,0.544,0.518,0.248,0.220,west-southwest,2.1,No
2015/02/08,22:40,0.519,0.319,0.597,0.544,0.517,0.248,0.221,west-southwest,5.6,No
2015/02/08,22:50,0.518,0.319,0.598,0.544,0.515,0.248,0.220,west,10.9,No
2015/02/08,23:00,0.520,0.319,0.597,0.545,0.519,0.250,0.220,west,10.3,No
2015/02/08,23:10,0.521,0.320,0.598,0.544,0.518,0.249,0.221,west,11.7,No
2015/02/08,23:20,0.518,0.320,0.599,0.545,0.517,0.249,0.221,west,15.4,No
2015/02/08,23:30,0.520,0.319,0.600,0.544,0.516,0.250,0.221,west,14.0,No
2015/02/08,23:40,0.521,0.319,0.601,0.545,0.519,0.249,0.221,west,13.4,No
2015/02/08,23:50,0.521,0.319,0.599,0.545,0.518,0.248,0.220,west,14.0,No
